Wetterdaten: Mittwoch, 13.11.2013
Datum Zeit Temperatur Luftfeuchte Luftdruck Regen Wind Richtung Richtung Taupunkt Windchill Windben
13.11.2013 00:00 1,0 C 96 % 1023,9 hPa 0,0 l/m 0,0 km/h (0 Bft) S 180 0,4 C 0,8 C 0,0 km/h (0 Bft)
13.11.2013 00:05 0,9 C 96 % 1023,9 hPa 0,0 l/m 1,0 km/h (0 Bft) S 180 0,3 C 0,8 C 5,8 km/h (2 Bft)
13.11.2013 00:10 0,9 C 96 % 1024,1 hPa 0,0 l/m 2,1 km/h (1 Bft) S-SO 157 0,3 C 0,8 C 4,5 km/h (1 Bft)
13.11.2013 00:15 0,9 C 96 % 1024,1 hPa 0,0 l/m 3,5 km/h (1 Bft) S-SW 202 0,3 C 0,1 C 5,3 km/h (1 Bft)
13.11.2013 00:20 0,9 C 96 % 1024,1 hPa 0,0 l/m 2,6 km/h (1 Bft) S 180 0,3 C 0,7 C 1,6 km/h (1 Bft)
13.11.2013 00:25 0,9 C 96 % 1024,1 hPa 0,0 l/m 1,9 km/h (1 Bft) O-SO 112 0,3 C 0,8 C 3,1 km/h (1 Bft)
13.11.2013 00:30 0,9 C 96 % 1024,4 hPa 0,0 l/m 2,1 km/h (1 Bft) S-SO 157 0,3 C 0,8 C 4,0 km/h (1 Bft)
13.11.2013 00:35 0,9 C 96 % 1024,4 hPa 0,0 l/m 2,4 km/h (1 Bft) S-SW 202 0,3 C 0,8 C 7,1 km/h (2 Bft)
13.11.2013 00:40 0,9 C 96 % 1024,4 hPa 0,0 l/m 2,6 km/h (1 Bft) S-SW 202 0,3 C 0,7 C 0,0 km/h (0 Bft)
13.11.2013 00:43 0,9 C 96 % 1024,4 hPa 0,0 l/m 3,2 km/h (1 Bft) S-SO 157 0,3 C 0,3 C 6,1 km/h (2 Bft)
13.11.2013 00:45 0,9 C 96 % 1024,4 hPa 0,0 l/m 3,2 km/h (1 Bft) S-SO 157 0,3 C 0,3 C 6,1 km/h (2 Bft)
13.11.2013 00:50 0,9 C 96 % 1024,4 hPa 0,0 l/m 2,9 km/h (1 Bft) S-SW 202 0,3 C 0,4 C 7,4 km/h (2 Bft)
13.11.2013 00:55 0,9 C 96 % 1024,4 hPa 0,0 l/m 2,9 km/h (1 Bft) S-SW 202 0,3 C 0,4 C 2,9 km/h (1 Bft)
13.11.2013 01:00 0,8 C 96 % 1024,4 hPa 0,0 l/m 2,9 km/h (1 Bft) W-SW 247 0,2 C 0,4 C 1,8 km/h (1 Bft)
13.11.2013 01:05 0,8 C 96 % 1024,4 hPa 0,0 l/m 2,7 km/h (1 Bft) S-SW 202 0,2 C 0,5 C 3,9 km/h (1 Bft)
13.11.2013 01:10 0,8 C 96 % 1024,6 hPa 0,0 l/m 2,6 km/h (1 Bft) S-SO 157 0,2 C 0,6 C 2,9 km/h (1 Bft)
13.11.2013 01:15 0,7 C 96 % 1024,6 hPa 0,0 l/m 2,6 km/h (1 Bft) S-SW 202 0,1 C 0,6 C 4,8 km/h (1 Bft)
13.11.2013 01:20 0,8 C 96 % 1024,6 hPa 0,0 l/m 2,4 km/h (1 Bft) SO 135 0,2 C 0,7 C 2,6 km/h (1 Bft)
13.11.2013 01:25 0,8 C 96 % 1024,6 hPa 0,0 l/m 1,4 km/h (1 Bft) S 180 0,2 C 0,7 C 0,0 km/h (0 Bft)
13.11.2013 01:30 0,8 C 96 % 1024,6 hPa 0,0 l/m 1,1 km/h (1 Bft) S-SO 157 0,2 C 0,7 C 0,0 km/h (0 Bft)
13.11.2013 01:35 0,8 C 96 % 1024,6 hPa 0,0 l/m 1,9 km/h (1 Bft) S 180 0,2 C 0,7 C 5,0 km/h (1 Bft)
13.11.2013 01:40 0,8 C 96 % 1024,6 hPa 0,0 l/m 3,2 km/h (1 Bft) S 180 0,2 C 0,2 C 3,5 km/h (1 Bft)
13.11.2013 01:45 0,8 C 96 % 1024,6 hPa 0,0 l/m 3,9 km/h (1 Bft) SW 225 0,2 C -0,2 C 4,5 km/h (1 Bft)
13.11.2013 01:50 0,8 C 96 % 1025,0 hPa 0,0 l/m 3,9 km/h (1 Bft) S-SW 202 0,2 C -0,2 C 2,6 km/h (1 Bft)
13.11.2013 01:55 0,8 C 96 % 1025,0 hPa 0,0 l/m 3,7 km/h (1 Bft) W-SW 247 0,2 C -0,1 C 6,1 km/h (2 Bft)
13.11.2013 02:00 0,8 C 96 % 1025,0 hPa 0,0 l/m 3,4 km/h (1 Bft) S-SW 202 0,2 C 0,1 C 2,7 km/h (1 Bft)
13.11.2013 02:05 0,8 C 96 % 1025,0 hPa 0,0 l/m 3,7 km/h (1 Bft) SW 225 0,2 C -0,1 C 5,1 km/h (1 Bft)
13.11.2013 02:10 0,7 C 96 % 1025,2 hPa 0,0 l/m 3,7 km/h (1 Bft) W 270 0,1 C -0,1 C 4,3 km/h (1 Bft)
13.11.2013 02:15 0,7 C 96 % 1025,2 hPa 0,0 l/m 3,4 km/h (1 Bft) W-SW 247 0,1 C 0,1 C 4,8 km/h (1 Bft)
13.11.2013 02:20 0,7 C 96 % 1025,2 hPa 0,0 l/m 2,6 km/h (1 Bft) SW 225 0,1 C 0,6 C 3,7 km/h (1 Bft)
13.11.2013 02:25 0,8 C 96 % 1025,2 hPa 0,0 l/m 2,1 km/h (1 Bft) S 180 0,2 C 0,7 C 0,0 km/h (0 Bft)
13.11.2013 02:30 0,8 C 96 % 1025,2 hPa 0,0 l/m 2,3 km/h (1 Bft) S-SW 202 0,2 C 0,7 C 3,9 km/h (1 Bft)
13.11.2013 02:35 0,8 C 96 % 1025,2 hPa 0,0 l/m 2,7 km/h (1 Bft) S 180 0,2 C 0,5 C 3,5 km/h (1 Bft)
13.11.2013 02:40 0,7 C 96 % 1025,2 hPa 0,0 l/m 3,7 km/h (1 Bft) S 180 0,1 C -0,1 C 4,3 km/h (1 Bft)
13.11.2013 02:45 0,7 C 96 % 1025,2 hPa 0,0 l/m 3,5 km/h (1 Bft) S 180 0,1 C 0,0 C 3,4 km/h (1 Bft)
13.11.2013 02:50 0,8 C 96 % 1025,5 hPa 0,0 l/m 3,1 km/h (1 Bft) S-SW 202 0,2 C 0,3 C 3,2 km/h (1 Bft)
13.11.2013 02:55 0,8 C 96 % 1025,5 hPa 0,0 l/m 2,7 km/h (1 Bft) S 180 0,2 C 0,5 C 2,9 km/h (1 Bft)
13.11.2013 03:00 0,7 C 95 % 1025,5 hPa 0,0 l/m 3,2 km/h (1 Bft) S-SO 157 -0,0 C 0,2 C 5,8 km/h (2 Bft)
13.11.2013 03:05 0,7 C 95 % 1025,5 hPa 0,0 l/m 3,5 km/h (1 Bft) S-SO 157 -0,0 C 0,0 C 2,3 km/h (1 Bft)
13.11.2013 03:10 0,7 C 95 % 1025,5 hPa 0,0 l/m 2,9 km/h (1 Bft) S 180 -0,0 C 0,4 C 5,5 km/h (1 Bft)
13.11.2013 03:15 0,7 C 95 % 1025,5 hPa 0,0 l/m 3,2 km/h (1 Bft) S-SO 157 -0,0 C 0,2 C 6,3 km/h (2 Bft)
13.11.2013 03:20 0,6 C 95 % 1025,5 hPa 0,0 l/m 4,5 km/h (1 Bft) SO 135 -0,1 C -0,7 C 7,6 km/h (2 Bft)
13.11.2013 03:25 0,6 C 95 % 1025,5 hPa 0,0 l/m 5,0 km/h (1 Bft) W-SW 247 -0,1 C -0,9 C 6,8 km/h (2 Bft)
13.11.2013 03:30 0,6 C 95 % 1025,7 hPa 0,0 l/m 5,1 km/h (1 Bft) W-SW 247 -0,1 C -0,9 C 7,9 km/h (2 Bft)
13.11.2013 03:35 0,6 C 95 % 1025,7 hPa 0,0 l/m 4,5 km/h (1 Bft) S 180 -0,1 C -0,7 C 6,0 km/h (2 Bft)
13.11.2013 03:40 0,6 C 95 % 1025,7 hPa 0,0 l/m 4,5 km/h (1 Bft) S-SW 202 -0,1 C -0,7 C 6,6 km/h (2 Bft)
13.11.2013 03:45 0,6 C 95 % 1025,7 hPa 0,0 l/m 4,8 km/h (1 Bft) S 180 -0,1 C -0,8 C 6,0 km/h (2 Bft)
13.11.2013 03:50 0,6 C 95 % 1025,8 hPa 0,0 l/m 3,9 km/h (1 Bft) SW 225 -0,1 C -0,4 C 3,2 km/h (1 Bft)
13.11.2013 03:55 0,6 C 95 % 1025,8 hPa 0,0 l/m 3,2 km/h (1 Bft) S-SO 157 -0,1 C -0,1 C 3,7 km/h (1 Bft)
13.11.2013 04:00 0,5 C 94 % 1025,8 hPa 0,0 l/m 3,5 km/h (1 Bft) S-SO 157 -0,4 C -0,2 C 3,7 km/h (1 Bft)
13.11.2013 04:05 0,5 C 94 % 1025,8 hPa 0,0 l/m 3,9 km/h (1 Bft) SO 135 -0,4 C -0,4 C 3,1 km/h (1 Bft)
13.11.2013 04:10 0,5 C 94 % 1026,0 hPa 0,0 l/m 3,4 km/h (1 Bft) S 180 -0,4 C -0,2 C 3,5 km/h (1 Bft)
13.11.2013 04:15 0,5 C 94 % 1026,0 hPa 0,0 l/m 3,4 km/h (1 Bft) S-SO 157 -0,4 C -0,2 C 3,4 km/h (1 Bft)
13.11.2013 04:20 0,5 C 94 % 1026,0 hPa 0,0 l/m 3,4 km/h (1 Bft) S-SO 157 -0,4 C -0,2 C 2,7 km/h (1 Bft)
13.11.2013 04:25 0,5 C 94 % 1026,0 hPa 0,0 l/m 3,1 km/h (1 Bft) S 180 -0,4 C 0,1 C 0,0 km/h (0 Bft)
13.11.2013 04:30 0,5 C 94 % 1026,0 hPa 0,0 l/m 2,1 km/h (1 Bft) S-SO 157 -0,4 C 0,4 C 0,0 km/h (0 Bft)
13.11.2013 04:35 0,5 C 94 % 1026,0 hPa 0,0 l/m 1,9 km/h (1 Bft) S 180 -0,4 C 0,4 C 5,0 km/h (1 Bft)
13.11.2013 04:40 0,5 C 94 % 1026,0 hPa 0,0 l/m 2,6 km/h (1 Bft) S 180 -0,4 C 0,3 C 4,2 km/h (1 Bft)
13.11.2013 04:45 0,5 C 94 % 1026,0 hPa 0,0 l/m 2,4 km/h (1 Bft) S-SO 157 -0,4 C 0,4 C 2,6 km/h (1 Bft)
13.11.2013 04:50 0,5 C 94 % 1026,1 hPa 0,0 l/m 1,9 km/h (1 Bft) S-SO 157 -0,4 C 0,4 C 2,3 km/h (1 Bft)
13.11.2013 04:55 0,4 C 94 % 1026,1 hPa 0,0 l/m 2,3 km/h (1 Bft) S-SO 157 -0,5 C 0,4 C 2,6 km/h (1 Bft)
13.11.2013 05:00 0,5 C 94 % 1026,1 hPa 0,0 l/m 2,9 km/h (1 Bft) S-SW 202 -0,4 C 0,1 C 1,8 km/h (1 Bft)
13.11.2013 05:05 0,5 C 94 % 1026,1 hPa 0,0 l/m 3,2 km/h (1 Bft) SW 225 -0,4 C -0,2 C 4,7 km/h (1 Bft)
13.11.2013 05:10 0,5 C 93 % 1026,1 hPa 0,0 l/m 4,3 km/h (1 Bft) S 180 -0,5 C -0,7 C 4,7 km/h (1 Bft)
13.11.2013 05:15 0,5 C 93 % 1026,1 hPa 0,0 l/m 4,2 km/h (1 Bft) S 180 -0,5 C -0,6 C 6,4 km/h (2 Bft)
13.11.2013 05:20 0,5 C 93 % 1026,1 hPa 0,0 l/m 2,7 km/h (1 Bft) W-SW 247 -0,5 C 0,3 C 0,0 km/h (0 Bft)
13.11.2013 05:25 0,5 C 93 % 1026,1 hPa 0,0 l/m 2,7 km/h (1 Bft) S-SO 157 -0,5 C 0,3 C 3,2 km/h (1 Bft)
13.11.2013 05:30 0,5 C 93 % 1026,3 hPa 0,0 l/m 2,9 km/h (1 Bft) S-SW 202 -0,5 C 0,2 C 3,9 km/h (1 Bft)
13.11.2013 05:35 0,5 C 93 % 1026,3 hPa 0,0 l/m 3,5 km/h (1 Bft) S 180 -0,5 C -0,2 C 5,8 km/h (2 Bft)
13.11.2013 05:38 0,5 C 93 % 1026,3 hPa 0,0 l/m 4,2 km/h (1 Bft) S-SW 202 -0,5 C -0,6 C 8,2 km/h (2 Bft)
13.11.2013 05:40 0,5 C 93 % 1026,3 hPa 0,0 l/m 4,2 km/h (1 Bft) S-SW 202 -0,5 C -0,6 C 8,2 km/h (2 Bft)
13.11.2013 05:45 0,5 C 93 % 1026,3 hPa 0,0 l/m 4,2 km/h (1 Bft) S 180 -0,5 C -0,6 C 6,9 km/h (2 Bft)
13.11.2013 05:50 0,5 C 93 % 1026,4 hPa 0,0 l/m 4,3 km/h (1 Bft) S-SW 202 -0,5 C -0,7 C 2,1 km/h (1 Bft)
13.11.2013 05:55 0,5 C 93 % 1026,4 hPa 0,0 l/m 3,7 km/h (1 Bft) NO 45 -0,5 C -0,3 C 0,0 km/h (0 Bft)
13.11.2013 06:00 0,5 C 92 % 1026,4 hPa 0,0 l/m 3,1 km/h (1 Bft) S-SW 202 -0,6 C 0,1 C 5,3 km/h (1 Bft)
13.11.2013 06:05 0,5 C 92 % 1026,4 hPa 0,0 l/m 3,4 km/h (1 Bft) W-SW 247 -0,6 C -0,2 C 3,7 km/h (1 Bft)
13.11.2013 06:10 0,5 C 92 % 1026,5 hPa 0,0 l/m 3,9 km/h (1 Bft) SW 225 -0,6 C -0,4 C 2,7 km/h (1 Bft)
13.11.2013 06:15 0,5 C 92 % 1026,5 hPa 0,0 l/m 3,4 km/h (1 Bft) S 180 -0,6 C -0,2 C 4,8 km/h (1 Bft)
13.11.2013 06:20 0,5 C 92 % 1026,5 hPa 0,0 l/m 3,7 km/h (1 Bft) S-SW 202 -0,6 C -0,3 C 3,1 km/h (1 Bft)
13.11.2013 06:25 0,5 C 92 % 1026,5 hPa 0,0 l/m 3,7 km/h (1 Bft) S-SO 157 -0,6 C -0,3 C 5,0 km/h (1 Bft)
13.11.2013 06:30 0,6 C 92 % 1026,8 hPa 0,0 l/m 3,5 km/h (1 Bft) S-SO 157 -0,5 C -0,1 C 3,2 km/h (1 Bft)
13.11.2013 06:35 0,6 C 92 % 1026,8 hPa 0,0 l/m 3,5 km/h (1 Bft) S-SW 202 -0,5 C -0,1 C 6,1 km/h (2 Bft)
13.11.2013 06:40 0,6 C 92 % 1026,8 hPa 0,0 l/m 3,5 km/h (1 Bft) S 180 -0,5 C -0,1 C 2,4 km/h (1 Bft)
13.11.2013 06:45 0,6 C 92 % 1026,8 hPa 0,0 l/m 3,5 km/h (1 Bft) S-SO 157 -0,5 C -0,1 C 6,8 km/h (2 Bft)
13.11.2013 06:50 0,6 C 92 % 1026,9 hPa 0,0 l/m 3,7 km/h (1 Bft) S 180 -0,5 C -0,2 C 5,3 km/h (1 Bft)
13.11.2013 06:55 0,6 C 91 % 1026,9 hPa 0,0 l/m 4,3 km/h (1 Bft) S-SW 202 -0,7 C -0,6 C 3,5 km/h (1 Bft)
13.11.2013 07:00 0,6 C 91 % 1026,9 hPa 0,0 l/m 3,7 km/h (1 Bft) N-NO 22 -0,7 C -0,2 C 6,4 km/h (2 Bft)
13.11.2013 07:05 0,6 C 91 % 1026,9 hPa 0,0 l/m 3,5 km/h (1 Bft) S 180 -0,7 C -0,1 C 3,1 km/h (1 Bft)
13.11.2013 07:10 0,5 C 92 % 1027,0 hPa 0,0 l/m 3,1 km/h (1 Bft) S-SO 157 -0,6 C 0,1 C 3,5 km/h (1 Bft)
13.11.2013 07:15 0,5 C 92 % 1027,0 hPa 0,0 l/m 1,8 km/h (1 Bft) S 180 -0,6 C 0,5 C 0,0 km/h (0 Bft)
13.11.2013 07:20 0,5 C 92 % 1027,0 hPa 0,0 l/m 0,5 km/h (0 Bft) S 180 -0,6 C 0,5 C 1,6 km/h (1 Bft)
13.11.2013 07:25 0,6 C 92 % 1027,0 hPa 0,0 l/m 1,0 km/h (0 Bft) S 180 -0,5 C 0,5 C 3,2 km/h (1 Bft)
13.11.2013 07:30 0,6 C 92 % 1027,1 hPa 0,0 l/m 1,0 km/h (0 Bft) S-SW 202 -0,5 C 0,5 C 0,0 km/h (0 Bft)
13.11.2013 07:35 0,6 C 92 % 1027,1 hPa 0,0 l/m 0,3 km/h (0 Bft) S-SW 202 -0,5 C 0,5 C 0,0 km/h (0 Bft)
13.11.2013 07:40 0,6 C 92 % 1027,1 hPa 0,0 l/m 0,0 km/h (0 Bft) S-SW 202 -0,5 C 0,5 C 0,0 km/h (0 Bft)
13.11.2013 07:45 0,6 C 92 % 1027,1 hPa 0,0 l/m 0,6 km/h (0 Bft) W-SW 247 -0,5 C 0,5 C 2,6 km/h (1 Bft)
13.11.2013 07:50 0,5 C 92 % 1027,3 hPa 0,0 l/m 2,4 km/h (1 Bft) W 270 -0,6 C 0,5 C 4,5 km/h (1 Bft)
13.11.2013 07:55 0,5 C 92 % 1027,3 hPa 0,0 l/m 3,5 km/h (1 Bft) W-NW 292 -0,6 C -0,2 C 3,9 km/h (1 Bft)
13.11.2013 08:00 0,4 C 92 % 1027,3 hPa 0,0 l/m 3,4 km/h (1 Bft) W-NW 292 -0,7 C -0,3 C 2,9 km/h (1 Bft)
13.11.2013 08:05 0,4 C 92 % 1027,3 hPa 0,0 l/m 3,2 km/h (1 Bft) W-NW 292 -0,7 C -0,2 C 4,0 km/h (1 Bft)
13.11.2013 08:10 0,4 C 92 % 1027,4 hPa 0,0 l/m 3,5 km/h (1 Bft) N 360 -0,7 C -0,4 C 2,9 km/h (1 Bft)
13.11.2013 08:15 0,4 C 92 % 1027,4 hPa 0,0 l/m 3,5 km/h (1 Bft) N-NW 337 -0,7 C -0,4 C 4,7 km/h (1 Bft)
13.11.2013 08:20 0,4 C 93 % 1027,4 hPa 0,0 l/m 3,5 km/h (1 Bft) N-NW 337 -0,6 C -0,4 C 0,0 km/h (0 Bft)
13.11.2013 08:25 0,4 C 93 % 1027,4 hPa 0,0 l/m 3,7 km/h (1 Bft) N-NW 337 -0,6 C -0,4 C 3,4 km/h (1 Bft)
13.11.2013 08:30 0,4 C 93 % 1027,8 hPa 0,0 l/m 3,5 km/h (1 Bft) N-NW 337 -0,6 C -0,4 C 7,1 km/h (2 Bft)
13.11.2013 08:35 0,4 C 93 % 1027,8 hPa 0,0 l/m 3,7 km/h (1 Bft) N-NO 22 -0,6 C -0,4 C 3,7 km/h (1 Bft)
13.11.2013 08:40 0,4 C 93 % 1027,8 hPa 0,0 l/m 4,0 km/h (1 Bft) W-NW 292 -0,6 C -0,6 C 3,4 km/h (1 Bft)
13.11.2013 08:45 0,5 C 93 % 1027,8 hPa 0,0 l/m 3,5 km/h (1 Bft) N-NW 337 -0,5 C -0,2 C 4,2 km/h (1 Bft)
13.11.2013 08:50 0,5 C 93 % 1027,7 hPa 0,0 l/m 3,1 km/h (1 Bft) W-NW 292 -0,5 C 0,1 C 3,7 km/h (1 Bft)
13.11.2013 08:55 0,6 C 93 % 1027,7 hPa 0,0 l/m 3,2 km/h (1 Bft) N-NO 22 -0,4 C 0,1 C 2,9 km/h (1 Bft)
13.11.2013 09:00 0,6 C 93 % 1027,7 hPa 0,0 l/m 3,5 km/h (1 Bft) N-NW 337 -0,4 C 0,0 C 4,8 km/h (1 Bft)
13.11.2013 09:05 0,7 C 93 % 1027,7 hPa 0,0 l/m 3,7 km/h (1 Bft) N 360 -0,3 C -0,1 C 4,5 km/h (1 Bft)
13.11.2013 09:10 0,9 C 93 % 1027,8 hPa 0,0 l/m 4,0 km/h (1 Bft) N-NW 337 -0,1 C -0,1 C 5,8 km/h (2 Bft)
13.11.2013 09:15 0,9 C 93 % 1027,8 hPa 0,0 l/m 4,2 km/h (1 Bft) NW 315 -0,1 C 0,1 C 3,9 km/h (1 Bft)
13.11.2013 09:20 0,9 C 93 % 1027,8 hPa 0,0 l/m 5,0 km/h (1 Bft) W-NW 292 -0,1 C -0,2 C 4,3 km/h (1 Bft)
13.11.2013 09:25 1,0 C 93 % 1027,8 hPa 0,0 l/m 4,8 km/h (1 Bft) N 360 -0,0 C -0,1 C 4,2 km/h (1 Bft)
13.11.2013 09:30 1,1 C 92 % 1028,0 hPa 0,0 l/m 5,0 km/h (1 Bft) N-NW 337 -0,1 C 0,0 C 6,9 km/h (2 Bft)
13.11.2013 09:35 1,4 C 93 % 1028,0 hPa 0,0 l/m 4,8 km/h (1 Bft) N 360 0,4 C 0,2 C 7,2 km/h (2 Bft)
13.11.2013 09:40 1,0 C 92 % 1028,0 hPa 0,0 l/m 5,0 km/h (1 Bft) N 360 -0,2 C 0,2 C 6,9 km/h (2 Bft)
13.11.2013 09:45 0,9 C 92 % 1028,0 hPa 0,0 l/m 5,3 km/h (1 Bft) N-NW 337 -0,2 C -0,1 C 6,4 km/h (2 Bft)
13.11.2013 09:50 1,0 C 92 % 1028,0 hPa 0,0 l/m 5,6 km/h (1 Bft) N 360 -0,2 C -0,4 C 7,1 km/h (2 Bft)
13.11.2013 09:55 1,1 C 92 % 1028,0 hPa 0,0 l/m 5,0 km/h (1 Bft) N-NW 337 -0,1 C -0,2 C 5,3 km/h (1 Bft)
13.11.2013 10:00 1,0 C 92 % 1028,0 hPa 0,0 l/m 5,0 km/h (1 Bft) N 360 -0,2 C -0,2 C 5,8 km/h (2 Bft)
13.11.2013 10:05 1,2 C 92 % 1028,0 hPa 0,0 l/m 4,8 km/h (1 Bft) N 360 0,0 C -0,1 C 7,4 km/h (2 Bft)
13.11.2013 10:10 1,3 C 92 % 1028,1 hPa 0,0 l/m 4,0 km/h (1 Bft) N-NW 337 0,1 C 0,7 C 3,1 km/h (1 Bft)
13.11.2013 10:15 1,4 C 92 % 1028,1 hPa 0,0 l/m 3,5 km/h (1 Bft) N-NW 337 0,2 C 1,1 C 3,1 km/h (1 Bft)
13.11.2013 10:20 1,5 C 92 % 1028,1 hPa 0,0 l/m 3,7 km/h (1 Bft) NW 315 0,3 C 1,2 C 2,7 km/h (1 Bft)
13.11.2013 10:25 1,5 C 91 % 1028,1 hPa 0,0 l/m 3,9 km/h (1 Bft) N-NW 337 0,2 C 1,2 C 7,6 km/h (2 Bft)
13.11.2013 10:30 1,4 C 91 % 1028,2 hPa 0,0 l/m 3,9 km/h (1 Bft) N-NW 337 0,1 C 1,0 C 6,1 km/h (2 Bft)
13.11.2013 10:35 1,4 C 91 % 1028,2 hPa 0,0 l/m 4,5 km/h (1 Bft) W 270 0,1 C 0,6 C 4,5 km/h (1 Bft)
13.11.2013 10:38 1,4 C 91 % 1028,2 hPa 0,0 l/m 4,0 km/h (1 Bft) N-NW 337 0,1 C 0,7 C 3,9 km/h (1 Bft)
13.11.2013 10:40 1,4 C 91 % 1028,2 hPa 0,0 l/m 4,0 km/h (1 Bft) N-NW 337 0,1 C 0,7 C 3,9 km/h (1 Bft)
13.11.2013 10:45 1,4 C 91 % 1028,2 hPa 0,0 l/m 2,6 km/h (1 Bft) N 360 0,1 C 1,6 C 0,0 km/h (0 Bft)
13.11.2013 10:50 1,6 C 91 % 1028,2 hPa 0,0 l/m 2,9 km/h (1 Bft) N 360 0,3 C 1,6 C 4,7 km/h (1 Bft)
13.11.2013 10:55 1,7 C 90 % 1028,2 hPa 0,0 l/m 3,5 km/h (1 Bft) N 360 0,2 C 1,3 C 3,7 km/h (1 Bft)
13.11.2013 11:00 1,6 C 89 % 1028,2 hPa 0,0 l/m 4,3 km/h (1 Bft) N 360 -0,0 C 1,1 C 8,5 km/h (2 Bft)
13.11.2013 11:05 1,6 C 88 % 1028,2 hPa 0,0 l/m 4,3 km/h (1 Bft) NW 315 -0,2 C 1,0 C 5,5 km/h (1 Bft)
13.11.2013 11:10 1,6 C 88 % 1028,3 hPa 0,0 l/m 3,7 km/h (1 Bft) N 360 -0,2 C 1,2 C 3,1 km/h (1 Bft)
13.11.2013 11:15 1,6 C 88 % 1028,3 hPa 0,0 l/m 3,5 km/h (1 Bft) N-NW 337 -0,2 C 1,3 C 6,3 km/h (2 Bft)
13.11.2013 11:20 1,6 C 87 % 1028,3 hPa 0,0 l/m 3,7 km/h (1 Bft) NW 315 -0,3 C 1,1 C 4,8 km/h (1 Bft)
13.11.2013 11:25 1,5 C 87 % 1028,3 hPa 0,0 l/m 4,0 km/h (1 Bft) W-NW 292 -0,4 C 0,9 C 6,3 km/h (2 Bft)
13.11.2013 11:30 1,6 C 87 % 1028,3 hPa 0,0 l/m 5,0 km/h (1 Bft) NW 315 -0,3 C 0,4 C 7,6 km/h (2 Bft)
13.11.2013 11:35 1,6 C 87 % 1028,3 hPa 0,0 l/m 5,1 km/h (1 Bft) W-NW 292 -0,3 C 0,3 C 4,8 km/h (1 Bft)
13.11.2013 11:40 1,7 C 87 % 1028,3 hPa 0,0 l/m 5,8 km/h (2 Bft) W-NW 292 -0,2 C 0,1 C 5,5 km/h (1 Bft)
13.11.2013 11:45 1,7 C 87 % 1028,3 hPa 0,0 l/m 5,6 km/h (1 Bft) W-NW 292 -0,2 C 0,2 C 6,8 km/h (2 Bft)
13.11.2013 11:50 1,7 C 87 % 1028,4 hPa 0,0 l/m 4,8 km/h (1 Bft) W 270 -0,2 C 0,5 C 4,8 km/h (1 Bft)
13.11.2013 11:55 1,7 C 87 % 1028,4 hPa 0,0 l/m 4,7 km/h (1 Bft) W-NW 292 -0,2 C 0,7 C 6,4 km/h (2 Bft)
13.11.2013 12:00 1,8 C 87 % 1028,4 hPa 0,0 l/m 4,7 km/h (1 Bft) N-NW 337 -0,1 C 0,7 C 6,9 km/h (2 Bft)
13.11.2013 12:05 1,9 C 87 % 1028,4 hPa 0,0 l/m 4,8 km/h (1 Bft) NW 315 -0,0 C 0,7 C 5,0 km/h (1 Bft)
13.11.2013 12:10 1,8 C 86 % 1028,5 hPa 0,0 l/m 4,7 km/h (1 Bft) N-NW 337 -0,3 C 1,1 C 4,8 km/h (1 Bft)
13.11.2013 12:15 1,7 C 86 % 1028,5 hPa 0,0 l/m 4,3 km/h (1 Bft) N 360 -0,4 C 1,1 C 7,4 km/h (2 Bft)
13.11.2013 12:20 1,7 C 85 % 1028,5 hPa 0,0 l/m 4,2 km/h (1 Bft) N-NO 22 -0,5 C 1,2 C 3,7 km/h (1 Bft)
13.11.2013 12:25 1,8 C 85 % 1028,5 hPa 0,0 l/m 4,0 km/h (1 Bft) N 360 -0,4 C 1,4 C 7,4 km/h (2 Bft)
13.11.2013 12:30 1,7 C 85 % 1027,9 hPa 0,0 l/m 3,9 km/h (1 Bft) SO 135 -0,5 C 1,3 C 3,9 km/h (1 Bft)
13.11.2013 12:35 1,8 C 85 % 1027,9 hPa 0,0 l/m 4,5 km/h (1 Bft) N 360 -0,4 C 1,0 C 7,4 km/h (2 Bft)
13.11.2013 12:40 1,8 C 85 % 1027,9 hPa 0,0 l/m 3,9 km/h (1 Bft) W-NW 292 -0,4 C 1,5 C 6,9 km/h (2 Bft)
13.11.2013 12:45 1,7 C 85 % 1027,9 hPa 0,0 l/m 4,8 km/h (1 Bft) W-NW 292 -0,5 C 0,9 C 6,1 km/h (2 Bft)
13.11.2013 12:50 1,8 C 86 % 1028,0 hPa 0,0 l/m 5,5 km/h (1 Bft) NW 315 -0,3 C 0,4 C 9,2 km/h (2 Bft)
13.11.2013 12:55 1,9 C 86 % 1028,0 hPa 0,0 l/m 5,1 km/h (1 Bft) N-NW 337 -0,2 C 0,7 C 5,8 km/h (2 Bft)
13.11.2013 13:00 2,0 C 86 % 1028,0 hPa 0,0 l/m 4,7 km/h (1 Bft) N-NW 337 -0,1 C 1,1 C 7,2 km/h (2 Bft)
13.11.2013 13:05 2,0 C 86 % 1028,0 hPa 0,0 l/m 4,8 km/h (1 Bft) N-NW 337 -0,1 C 1,1 C 6,8 km/h (2 Bft)
13.11.2013 13:10 2,0 C 85 % 1027,8 hPa 0,0 l/m 5,5 km/h (1 Bft) NW 315 -0,3 C 0,8 C 9,3 km/h (2 Bft)
13.11.2013 13:15 2,0 C 85 % 1027,8 hPa 0,0 l/m 5,5 km/h (1 Bft) W-NW 292 -0,3 C 0,8 C 8,4 km/h (2 Bft)
13.11.2013 13:20 2,0 C 85 % 1027,8 hPa 0,0 l/m 5,8 km/h (2 Bft) N-NO 22 -0,3 C 0,7 C 10,6 km/h (2 Bft)
13.11.2013 13:25 2,2 C 85 % 1027,8 hPa 0,0 l/m 6,1 km/h (2 Bft) W-NW 292 -0,1 C 0,8 C 7,7 km/h (2 Bft)
13.11.2013 13:30 2,2 C 84 % 1027,8 hPa 0,0 l/m 5,5 km/h (1 Bft) N-NW 337 -0,2 C 1,3 C 7,1 km/h (2 Bft)
13.11.2013 13:35 2,2 C 84 % 1027,8 hPa 0,0 l/m 5,8 km/h (2 Bft) W-NW 292 -0,2 C 1,2 C 8,4 km/h (2 Bft)
13.11.2013 13:40 2,3 C 83 % 1027,8 hPa 0,0 l/m 5,3 km/h (1 Bft) N 360 -0,3 C 1,4 C 7,4 km/h (2 Bft)
13.11.2013 13:45 2,1 C 83 % 1027,8 hPa 0,0 l/m 6,0 km/h (2 Bft) W 270 -0,5 C 1,1 C 7,6 km/h (2 Bft)
13.11.2013 13:50 2,2 C 83 % 1027,8 hPa 0,0 l/m 6,1 km/h (2 Bft) N-NW 337 -0,4 C 0,8 C 10,9 km/h (2 Bft)
13.11.2013 13:55 2,4 C 83 % 1027,8 hPa 0,0 l/m 5,1 km/h (1 Bft) N-NW 337 -0,2 C 1,3 C 7,4 km/h (2 Bft)
13.11.2013 14:00 2,1 C 82 % 1027,8 hPa 0,0 l/m 5,3 km/h (1 Bft) N-NW 337 -0,6 C 1,2 C 7,7 km/h (2 Bft)
13.11.2013 14:05 2,2 C 83 % 1027,8 hPa 0,0 l/m 5,8 km/h (2 Bft) W-NW 292 -0,4 C 0,9 C 6,1 km/h (2 Bft)
13.11.2013 14:10 2,3 C 83 % 1027,7 hPa 0,0 l/m 4,8 km/h (1 Bft) N-NW 337 -0,3 C 1,3 C 5,6 km/h (1 Bft)
13.11.2013 14:15 2,2 C 83 % 1027,7 hPa 0,0 l/m 4,5 km/h (1 Bft) NW 315 -0,4 C 1,4 C 5,8 km/h (2 Bft)
13.11.2013 14:20 2,1 C 83 % 1027,7 hPa 0,0 l/m 3,9 km/h (1 Bft) W-NW 292 -0,5 C 1,8 C 3,1 km/h (1 Bft)
13.11.2013 14:25 2,2 C 83 % 1027,7 hPa 0,0 l/m 3,5 km/h (1 Bft) N-NW 337 -0,4 C 1,9 C 4,8 km/h (1 Bft)
13.11.2013 14:30 2,1 C 83 % 1027,8 hPa 0,0 l/m 4,8 km/h (1 Bft) N-NW 337 -0,5 C 1,3 C 6,4 km/h (2 Bft)
13.11.2013 14:35 2,2 C 83 % 1027,8 hPa 0,0 l/m 5,5 km/h (1 Bft) N-NW 337 -0,4 C 0,9 C 6,6 km/h (2 Bft)
13.11.2013 14:40 2,3 C 83 % 1027,8 hPa 0,0 l/m 5,3 km/h (1 Bft) NW 315 -0,3 C 1,1 C 6,9 km/h (2 Bft)
13.11.2013 14:45 2,5 C 83 % 1027,8 hPa 0,0 l/m 5,0 km/h (1 Bft) N-NW 337 -0,1 C 1,4 C 4,7 km/h (1 Bft)
13.11.2013 14:50 2,4 C 82 % 1027,7 hPa 0,0 l/m 5,3 km/h (1 Bft) NW 315 -0,4 C 1,6 C 8,9 km/h (2 Bft)
13.11.2013 14:55 2,5 C 82 % 1027,7 hPa 0,0 l/m 5,6 km/h (1 Bft) N 360 -0,3 C 1,6 C 7,9 km/h (2 Bft)
13.11.2013 15:00 2,3 C 82 % 1027,7 hPa 0,0 l/m 5,6 km/h (1 Bft) N 360 -0,4 C 1,3 C 7,6 km/h (2 Bft)
13.11.2013 15:05 2,2 C 83 % 1027,7 hPa 0,0 l/m 5,6 km/h (1 Bft) N 360 -0,4 C 1,1 C 4,8 km/h (1 Bft)
13.11.2013 15:10 2,2 C 83 % 1027,8 hPa 0,0 l/m 5,5 km/h (1 Bft) N 360 -0,4 C 1,1 C 6,9 km/h (2 Bft)
13.11.2013 15:15 2,2 C 83 % 1027,8 hPa 0,0 l/m 5,1 km/h (1 Bft) NW 315 -0,4 C 1,2 C 4,8 km/h (1 Bft)
13.11.2013 15:20 2,2 C 83 % 1027,8 hPa 0,0 l/m 5,1 km/h (1 Bft) N-NO 22 -0,4 C 1,1 C 4,7 km/h (1 Bft)
13.11.2013 15:25 2,2 C 84 % 1027,8 hPa 0,0 l/m 4,3 km/h (1 Bft) N 360 -0,2 C 1,4 C 5,0 km/h (1 Bft)
13.11.2013 15:30 2,3 C 84 % 1027,6 hPa 0,0 l/m 3,5 km/h (1 Bft) NO 45 -0,1 C 1,9 C 5,1 km/h (1 Bft)
13.11.2013 15:35 2,3 C 84 % 1027,6 hPa 0,0 l/m 3,1 km/h (1 Bft) N-NW 337 -0,1 C 2,2 C 3,9 km/h (1 Bft)
13.11.2013 15:38 2,2 C 83 % 1027,6 hPa 0,0 l/m 4,0 km/h (1 Bft) N-NW 337 -0,4 C 1,7 C 7,4 km/h (2 Bft)
13.11.2013 15:40 2,2 C 83 % 1027,6 hPa 0,0 l/m 4,0 km/h (1 Bft) N-NW 337 -0,4 C 1,7 C 7,4 km/h (2 Bft)
13.11.2013 15:45 2,2 C 84 % 1027,6 hPa 0,0 l/m 4,3 km/h (1 Bft) N-NW 337 -0,2 C 1,6 C 7,6 km/h (2 Bft)
13.11.2013 15:50 2,1 C 84 % 1027,4 hPa 0,0 l/m 4,8 km/h (1 Bft) N-NW 337 -0,3 C 1,2 C 5,6 km/h (1 Bft)
13.11.2013 15:55 2,1 C 84 % 1027,4 hPa 0,0 l/m 4,8 km/h (1 Bft) N-NW 337 -0,3 C 1,2 C 5,6 km/h (1 Bft)
13.11.2013 16:00 2,1 C 84 % 1027,4 hPa 0,0 l/m 4,7 km/h (1 Bft) NW 315 -0,3 C 1,1 C 6,6 km/h (2 Bft)
13.11.2013 16:05 2,0 C 84 % 1027,4 hPa 0,0 l/m 4,0 km/h (1 Bft) N-NW 337 -0,4 C 1,4 C 5,0 km/h (1 Bft)
13.11.2013 16:10 2,0 C 85 % 1027,3 hPa 0,0 l/m 4,3 km/h (1 Bft) N-NO 22 -0,3 C 1,2 C 6,1 km/h (2 Bft)
13.11.2013 16:15 2,0 C 85 % 1027,3 hPa 0,0 l/m 3,4 km/h (1 Bft) N-NW 337 -0,3 C 1,6 C 4,0 km/h (1 Bft)
13.11.2013 16:20 1,9 C 85 % 1027,3 hPa 0,0 l/m 2,4 km/h (1 Bft) N 360 -0,3 C 2,1 C 4,7 km/h (1 Bft)
13.11.2013 16:25 1,9 C 86 % 1027,3 hPa 0,0 l/m 2,4 km/h (1 Bft) N 360 -0,2 C 2,1 C 4,7 km/h (1 Bft)
13.11.2013 16:30 1,9 C 85 % 1027,1 hPa 0,0 l/m 3,5 km/h (1 Bft) N-NW 337 -0,3 C 1,4 C 5,8 km/h (2 Bft)
13.11.2013 16:35 1,9 C 85 % 1027,1 hPa 0,0 l/m 3,4 km/h (1 Bft) O-SO 112 -0,3 C 1,5 C 4,8 km/h (1 Bft)
13.11.2013 16:40 1,9 C 85 % 1027,1 hPa 0,0 l/m 3,4 km/h (1 Bft) N-NW 337 -0,3 C 1,5 C 5,3 km/h (1 Bft)
13.11.2013 16:45 1,9 C 85 % 1027,1 hPa 0,0 l/m 3,7 km/h (1 Bft) N-NO 22 -0,3 C 1,4 C 4,0 km/h (1 Bft)
13.11.2013 16:50 1,9 C 85 % 1027,1 hPa 0,0 l/m 3,9 km/h (1 Bft) NW 315 -0,3 C 1,2 C 2,6 km/h (1 Bft)
13.11.2013 16:55 1,9 C 86 % 1027,1 hPa 0,0 l/m 2,7 km/h (1 Bft) N-NW 337 -0,2 C 1,9 C 3,1 km/h (1 Bft)
13.11.2013 17:00 1,9 C 86 % 1027,1 hPa 0,0 l/m 1,8 km/h (1 Bft) N-NW 337 -0,2 C 1,9 C 2,6 km/h (1 Bft)
13.11.2013 17:05 1,8 C 86 % 1027,1 hPa 0,0 l/m 1,8 km/h (1 Bft) O-NO 67 -0,3 C 1,9 C 1,9 km/h (1 Bft)
13.11.2013 17:10 1,8 C 86 % 1027,1 hPa 0,0 l/m 2,1 km/h (1 Bft) SW 225 -0,3 C 1,9 C 5,3 km/h (1 Bft)
13.11.2013 17:15 1,8 C 86 % 1027,1 hPa 0,0 l/m 2,6 km/h (1 Bft) W-NW 292 -0,3 C 1,9 C 2,3 km/h (1 Bft)
13.11.2013 17:20 1,8 C 86 % 1027,1 hPa 0,0 l/m 2,7 km/h (1 Bft) N 360 -0,3 C 1,8 C 0,0 km/h (0 Bft)
13.11.2013 17:25 1,8 C 86 % 1027,1 hPa 0,0 l/m 2,4 km/h (1 Bft) NW 315 -0,3 C 1,9 C 4,7 km/h (1 Bft)
13.11.2013 17:30 1,8 C 86 % 1027,1 hPa 0,0 l/m 2,4 km/h (1 Bft) NW 315 -0,3 C 1,9 C 1,8 km/h (1 Bft)
13.11.2013 17:35 1,8 C 87 % 1027,1 hPa 0,0 l/m 2,3 km/h (1 Bft) NO 45 -0,1 C 1,8 C 2,3 km/h (1 Bft)
13.11.2013 17:40 1,8 C 87 % 1027,1 hPa 0,0 l/m 2,3 km/h (1 Bft) N 360 -0,1 C 1,8 C 2,1 km/h (1 Bft)
13.11.2013 17:45 1,8 C 87 % 1027,1 hPa 0,0 l/m 2,4 km/h (1 Bft) N 360 -0,1 C 1,8 C 5,6 km/h (1 Bft)
13.11.2013 17:50 1,8 C 87 % 1027,0 hPa 0,0 l/m 2,6 km/h (1 Bft) W-NW 292 -0,1 C 1,8 C 1,9 km/h (1 Bft)
13.11.2013 17:55 1,8 C 87 % 1027,0 hPa 0,0 l/m 3,1 km/h (1 Bft) N 360 -0,1 C 1,4 C 4,5 km/h (1 Bft)
13.11.2013 18:00 1,8 C 87 % 1027,0 hPa 0,0 l/m 3,4 km/h (1 Bft) N-NW 337 -0,1 C 1,3 C 3,7 km/h (1 Bft)
13.11.2013 18:05 1,8 C 87 % 1027,0 hPa 0,0 l/m 3,5 km/h (1 Bft) N-NO 22 -0,1 C 1,2 C 7,4 km/h (2 Bft)
13.11.2013 18:10 1,8 C 87 % 1027,2 hPa 0,0 l/m 3,2 km/h (1 Bft) N-NW 337 -0,1 C 1,3 C 6,6 km/h (2 Bft)
13.11.2013 18:15 1,8 C 87 % 1027,2 hPa 0,0 l/m 3,2 km/h (1 Bft) N-NW 337 -0,1 C 1,3 C 5,8 km/h (2 Bft)
13.11.2013 18:20 1,7 C 88 % 1027,2 hPa 0,0 l/m 3,9 km/h (1 Bft) NW 315 -0,1 C 1,0 C 5,8 km/h (2 Bft)
13.11.2013 18:25 1,7 C 88 % 1027,2 hPa 0,0 l/m 4,0 km/h (1 Bft) NW 315 -0,1 C 0,9 C 6,9 km/h (2 Bft)
13.11.2013 18:30 1,7 C 88 % 1027,1 hPa 0,0 l/m 3,7 km/h (1 Bft) N-NW 337 -0,1 C 1,0 C 3,7 km/h (1 Bft)
13.11.2013 18:35 1,7 C 88 % 1027,1 hPa 0,0 l/m 3,4 km/h (1 Bft) N-NW 337 -0,1 C 1,2 C 4,7 km/h (1 Bft)
13.11.2013 18:40 1,6 C 88 % 1027,1 hPa 0,0 l/m 3,9 km/h (1 Bft) N-NW 337 -0,2 C 0,9 C 5,5 km/h (1 Bft)
13.11.2013 18:45 1,6 C 88 % 1027,1 hPa 0,0 l/m 4,0 km/h (1 Bft) N 360 -0,2 C 0,8 C 7,2 km/h (2 Bft)
13.11.2013 18:50 1,6 C 89 % 1027,1 hPa 0,0 l/m 3,4 km/h (1 Bft) N 360 -0,0 C 1,2 C 6,6 km/h (2 Bft)
13.11.2013 18:55 1,6 C 89 % 1027,1 hPa 0,0 l/m 4,0 km/h (1 Bft) N-NW 337 -0,0 C 0,8 C 6,0 km/h (2 Bft)
13.11.2013 19:00 1,6 C 89 % 1027,1 hPa 0,0 l/m 3,9 km/h (1 Bft) W-SW 247 -0,0 C 0,8 C 3,7 km/h (1 Bft)
13.11.2013 19:05 1,6 C 89 % 1027,1 hPa 0,0 l/m 3,9 km/h (1 Bft) NW 315 -0,0 C 0,8 C 4,5 km/h (1 Bft)
13.11.2013 19:10 1,6 C 89 % 1027,1 hPa 0,0 l/m 3,7 km/h (1 Bft) NW 315 -0,0 C 0,9 C 3,4 km/h (1 Bft)
13.11.2013 19:15 1,6 C 89 % 1027,1 hPa 0,0 l/m 4,5 km/h (1 Bft) N-NW 337 -0,0 C 0,4 C 5,3 km/h (1 Bft)
13.11.2013 19:20 1,6 C 89 % 1027,1 hPa 0,0 l/m 4,8 km/h (1 Bft) N 360 -0,0 C 0,3 C 5,0 km/h (1 Bft)
13.11.2013 19:25 1,6 C 89 % 1027,1 hPa 0,0 l/m 4,2 km/h (1 Bft) NW 315 -0,0 C 0,6 C 5,5 km/h (1 Bft)
13.11.2013 19:30 1,5 C 89 % 1026,9 hPa 0,0 l/m 4,3 km/h (1 Bft) N 360 -0,1 C 0,6 C 5,6 km/h (1 Bft)
13.11.2013 19:35 1,5 C 89 % 1026,9 hPa 0,0 l/m 4,5 km/h (1 Bft) N-NW 337 -0,1 C 0,4 C 4,5 km/h (1 Bft)
13.11.2013 19:40 1,5 C 89 % 1026,9 hPa 0,0 l/m 4,0 km/h (1 Bft) W-NW 292 -0,1 C 0,7 C 3,9 km/h (1 Bft)
13.11.2013 19:45 1,5 C 89 % 1026,9 hPa 0,0 l/m 3,7 km/h (1 Bft) N 360 -0,1 C 0,8 C 6,4 km/h (2 Bft)
13.11.2013 19:50 1,5 C 89 % 1026,8 hPa 0,0 l/m 3,9 km/h (1 Bft) W-SW 247 -0,1 C 0,7 C 7,2 km/h (2 Bft)
13.11.2013 19:55 1,5 C 89 % 1026,8 hPa 0,0 l/m 4,0 km/h (1 Bft) W-NW 292 -0,1 C 0,6 C 2,9 km/h (1 Bft)
13.11.2013 20:00 1,5 C 89 % 1026,8 hPa 0,0 l/m 4,7 km/h (1 Bft) W-NW 292 -0,1 C 0,3 C 4,8 km/h (1 Bft)
13.11.2013 20:05 1,5 C 89 % 1026,8 hPa 0,0 l/m 5,1 km/h (1 Bft) N 360 -0,1 C 0,1 C 6,8 km/h (2 Bft)
13.11.2013 20:10 1,4 C 89 % 1026,8 hPa 0,0 l/m 5,3 km/h (1 Bft) N-NW 337 -0,2 C -0,1 C 7,7 km/h (2 Bft)
13.11.2013 20:15 1,4 C 89 % 1026,8 hPa 0,0 l/m 4,8 km/h (1 Bft) N-NW 337 -0,2 C 0,2 C 3,7 km/h (1 Bft)
13.11.2013 20:20 1,4 C 89 % 1026,8 hPa 0,0 l/m 5,0 km/h (1 Bft) N-NW 337 -0,2 C 0,1 C 7,1 km/h (2 Bft)
13.11.2013 20:25 1,4 C 89 % 1026,8 hPa 0,0 l/m 5,6 km/h (1 Bft) N 360 -0,2 C -0,2 C 6,4 km/h (2 Bft)
13.11.2013 20:30 1,3 C 89 % 1026,6 hPa 0,0 l/m 6,0 km/h (2 Bft) W-NW 292 -0,3 C -0,4 C 6,8 km/h (2 Bft)
13.11.2013 20:35 1,3 C 89 % 1026,6 hPa 0,0 l/m 5,1 km/h (1 Bft) W-NW 292 -0,3 C -0,1 C 7,2 km/h (2 Bft)
13.11.2013 20:38 1,3 C 89 % 1026,6 hPa 0,0 l/m 4,5 km/h (1 Bft) W-NW 292 -0,3 C 0,2 C 5,0 km/h (1 Bft)
13.11.2013 20:40 1,3 C 89 % 1026,6 hPa 0,0 l/m 4,5 km/h (1 Bft) W-NW 292 -0,3 C 0,2 C 5,0 km/h (1 Bft)
13.11.2013 20:45 1,3 C 89 % 1026,6 hPa 0,0 l/m 4,2 km/h (1 Bft) N 360 -0,3 C 0,2 C 7,4 km/h (2 Bft)
13.11.2013 20:50 1,2 C 89 % 1026,4 hPa 0,0 l/m 4,7 km/h (1 Bft) N-NW 337 -0,4 C 0,0 C 4,5 km/h (1 Bft)
13.11.2013 20:55 1,2 C 89 % 1026,4 hPa 0,0 l/m 5,1 km/h (1 Bft) N-NW 337 -0,4 C -0,2 C 6,6 km/h (2 Bft)
13.11.2013 21:00 1,2 C 89 % 1026,4 hPa 0,0 l/m 5,3 km/h (1 Bft) N-NW 337 -0,4 C -0,3 C 7,2 km/h (2 Bft)
13.11.2013 21:05 1,2 C 89 % 1026,4 hPa 0,0 l/m 5,1 km/h (1 Bft) N 360 -0,4 C -0,2 C 5,1 km/h (1 Bft)
13.11.2013 21:10 1,2 C 89 % 1026,4 hPa 0,0 l/m 5,0 km/h (1 Bft) N 360 -0,4 C -0,2 C 6,8 km/h (2 Bft)
13.11.2013 21:15 1,2 C 89 % 1026,4 hPa 0,0 l/m 5,1 km/h (1 Bft) NW 315 -0,4 C -0,3 C 8,0 km/h (2 Bft)
13.11.2013 21:20 1,1 C 89 % 1026,4 hPa 0,0 l/m 5,5 km/h (1 Bft) N-NW 337 -0,5 C -0,4 C 10,1 km/h (2 Bft)
13.11.2013 21:25 1,1 C 89 % 1026,4 hPa 0,0 l/m 6,3 km/h (2 Bft) N-NW 337 -0,5 C -0,7 C 8,0 km/h (2 Bft)
13.11.2013 21:30 1,1 C 89 % 1026,1 hPa 0,0 l/m 6,4 km/h (2 Bft) N 360 -0,5 C -0,8 C 7,4 km/h (2 Bft)
13.11.2013 21:35 1,1 C 89 % 1026,1 hPa 0,0 l/m 5,6 km/h (1 Bft) N-NW 337 -0,5 C -0,6 C 6,3 km/h (2 Bft)
13.11.2013 21:40 1,1 C 90 % 1026,1 hPa 0,0 l/m 4,3 km/h (1 Bft) W-NW 292 -0,4 C 0,0 C 5,5 km/h (1 Bft)
13.11.2013 21:45 1,1 C 90 % 1026,1 hPa 0,0 l/m 4,0 km/h (1 Bft) NW 315 -0,4 C 0,2 C 2,1 km/h (1 Bft)
13.11.2013 21:50 1,1 C 90 % 1025,9 hPa 0,0 l/m 4,0 km/h (1 Bft) N 360 -0,4 C 0,2 C 7,2 km/h (2 Bft)
13.11.2013 21:55 1,1 C 90 % 1025,9 hPa 0,0 l/m 3,7 km/h (1 Bft) N-NW 337 -0,4 C 0,3 C 3,4 km/h (1 Bft)
13.11.2013 22:00 1,1 C 91 % 1025,9 hPa 0,0 l/m 3,2 km/h (1 Bft) W-NW 292 -0,2 C 0,7 C 6,0 km/h (2 Bft)
13.11.2013 22:05 1,1 C 91 % 1025,9 hPa 0,0 l/m 3,5 km/h (1 Bft) N 360 -0,2 C 0,6 C 4,3 km/h (1 Bft)
13.11.2013 22:10 1,1 C 91 % 1025,6 hPa 0,0 l/m 4,8 km/h (1 Bft) N-NW 337 -0,2 C -0,3 C 4,2 km/h (1 Bft)
13.11.2013 22:15 1,1 C 91 % 1025,6 hPa 0,0 l/m 4,0 km/h (1 Bft) N-NW 337 -0,2 C 0,2 C 3,9 km/h (1 Bft)
13.11.2013 22:20 1,1 C 91 % 1025,6 hPa 0,0 l/m 3,5 km/h (1 Bft) N-NW 337 -0,2 C 0,4 C 5,5 km/h (1 Bft)
13.11.2013 22:25 1,1 C 91 % 1025,6 hPa 0,0 l/m 3,9 km/h (1 Bft) N-NW 337 -0,2 C 0,2 C 7,4 km/h (2 Bft)
13.11.2013 22:30 1,1 C 92 % 1025,4 hPa 0,0 l/m 5,3 km/h (1 Bft) N-NW 337 -0,1 C -0,4 C 6,4 km/h (2 Bft)
13.11.2013 22:35 1,1 C 92 % 1025,4 hPa 0,0 l/m 4,7 km/h (1 Bft) N-NW 337 -0,1 C -0,2 C 6,3 km/h (2 Bft)
13.11.2013 22:40 1,1 C 92 % 1025,4 hPa 0,0 l/m 4,5 km/h (1 Bft) N-NW 337 -0,1 C -0,1 C 4,2 km/h (1 Bft)
13.11.2013 22:45 1,1 C 92 % 1025,4 hPa 0,0 l/m 5,1 km/h (1 Bft) NW 315 -0,1 C -0,4 C 7,4 km/h (2 Bft)
13.11.2013 22:50 1,1 C 92 % 1025,2 hPa 0,0 l/m 4,8 km/h (1 Bft) NW 315 -0,1 C -0,3 C 2,1 km/h (1 Bft)
13.11.2013 22:55 1,1 C 92 % 1025,2 hPa 0,0 l/m 4,8 km/h (1 Bft) N 360 -0,1 C -0,3 C 4,5 km/h (1 Bft)
13.11.2013 23:00 1,1 C 92 % 1025,2 hPa 0,0 l/m 4,5 km/h (1 Bft) W-NW 292 -0,1 C -0,1 C 3,9 km/h (1 Bft)
13.11.2013 23:05 1,1 C 92 % 1025,2 hPa 0,0 l/m 4,5 km/h (1 Bft) N-NW 337 -0,1 C -0,1 C 3,9 km/h (1 Bft)
13.11.2013 23:10 1,0 C 92 % 1025,1 hPa 0,0 l/m 4,3 km/h (1 Bft) N 360 -0,2 C 0,0 C 5,1 km/h (1 Bft)
13.11.2013 23:15 1,0 C 92 % 1025,1 hPa 0,0 l/m 4,7 km/h (1 Bft) N-NW 337 -0,2 C -0,3 C 6,9 km/h (2 Bft)
13.11.2013 23:20 1,0 C 92 % 1025,1 hPa 0,0 l/m 4,0 km/h (1 Bft) N-NW 337 -0,2 C 0,0 C 2,1 km/h (1 Bft)
13.11.2013 23:25 1,0 C 92 % 1025,1 hPa 0,0 l/m 3,9 km/h (1 Bft) N-NO 22 -0,2 C 0,1 C 5,1 km/h (1 Bft)
13.11.2013 23:30 1,0 C 92 % 1024,7 hPa 0,0 l/m 5,1 km/h (1 Bft) W 270 -0,2 C -0,5 C 7,2 km/h (2 Bft)
13.11.2013 23:35 1,0 C 92 % 1024,7 hPa 0,0 l/m 4,8 km/h (1 Bft) N 360 -0,2 C -0,4 C 5,6 km/h (1 Bft)
13.11.2013 23:40 1,0 C 92 % 1024,7 hPa 0,0 l/m 4,8 km/h (1 Bft) N-NW 337 -0,2 C -0,4 C 5,3 km/h (1 Bft)
13.11.2013 23:45 1,0 C 92 % 1024,7 hPa 0,0 l/m 4,2 km/h (1 Bft) N-NO 22 -0,2 C -0,1 C 1,9 km/h (1 Bft)
13.11.2013 23:50 1,0 C 91 % 1024,4 hPa 0,0 l/m 4,2 km/h (1 Bft) N-NO 22 -0,3 C -0,1 C 1,9 km/h (1 Bft)
13.11.2013 23:55 1,0 C 91 % 1024,4 hPa 0,0 l/m 3,2 km/h (1 Bft) N 360 -0,3 C 0,4 C 2,1 km/h (1 Bft)
_ Min-Zeit 08:40 15:00 00:05 - 07:40 - - 08:15 03:30 17:20
Minimum _ 0,4 C 82 % 1023,9 hPa - 0,0 km/h (0 Bft) - - -0,7 C -0,9 C 0,0 km/h (0 Bft)
_ Max-Zeit 14:55 02:55 12:25 23:55 21:30 - - 00:00 15:35 13:50
Maximum _ 2,5 C 96 % 1028,5 hPa 0,0 l/m 6,4 km/h
N (2 Bft)
- - 0,4 C 2,2 C 10,9 km/h
N-NW (2 Bft)
Durchschnitt _ 1,2 C 90 % 1026,7 hPa #0,0 l/m 3,8 km/h (1 Bft) N-NW - -0,2 C 0,5 C 4,8 km/h (1 Bft)